Home   Weather   Porto Alegre   Past weeks

Flag for Brazil Past Weather in Porto Alegre, Rio Grande do Sul, Brazil — Yesterday and Last 2 Weeks

72 °F

Light rain. Mostly cloudy.

Feels Like: 69 °F
Forecast: 57 / 68 °F
Wind: 16 mph from Northwest

Location: Porto Alegre Aero-Porto

Current Time: Oct 26, 2016 at 11:24:04 PM

Latest Report: Oct 26, 2016 at 11:00 PM

Visibility: 4 mi

Pressure: 29.65 "Hg

Humidity: 88%

Dew Point: 68 °F

Location of Porto AlegreLocation

Past Weather in Porto Alegre — Graph


Porto Alegre Temperature Yesterday

Maximum temperature yesterday: 77 °F (at 2:00 PM)
Minimum temperature yesterday: 68 °F (at 7:00 PM)
Average temperature yesterday: 71 °F

High & Low Weather Summary for the Past Weeks

High84 °F (Oct 15, 1:00 PM)100% (Oct 17, 6:00 AM)30.18 "Hg (Oct 17, 6:00 AM)
Low32 °F (Oct 17, 9:00 AM)27% (Oct 19, 6:00 PM)29.62 "Hg (Oct 26, 5:00 PM)
Average69 °F79%29.90 "Hg
* Reported Oct 11 9:00 PM — Oct 26 10:00 PM, Porto Alegre, Weather by CustomWeather, © 2016

Note: Actual official high and low records may vary slightly from our data, if they occured in-between our weather recording intervals... More about our weather records


Porto Alegre Weather History for the Previous 24 Hours

Scroll right to see more
Time TempWeatherWind HumidityBarometerVisibility
10:00 PM
Wed, Oct 26
72 °FMostly cloudy.5 mph94%29.62 "HgN/A
9:00 PM72 °FLight rain. Overcast.6 mph94%29.62 "Hg5 mi
8:00 PM73 °FLight rain. Mostly cloudy.3 mph83%29.65 "Hg5 mi
7:00 PM77 °FOvercast.5 mph69%29.62 "HgN/A
6:00 PM79 °FBroken clouds.5 mph65%29.62 "HgN/A
5:00 PM79 °FScattered clouds.3 mph61%29.62 "HgN/A
4:00 PM81 °FBroken clouds.1 mph62%29.65 "HgN/A
3:00 PM79 °FOvercast.No wind65%29.68 "HgN/A
2:00 PM77 °FOvercast.3 mph69%29.71 "HgN/A
1:00 PM77 °FBroken clouds.7 mph69%29.74 "HgN/A
12:00 PM77 °FPassing clouds.9 mph69%29.77 "HgN/A
11:00 AM75 °FSunny.8 mph69%29.80 "Hg10 mi
10:00 AM73 °FSunny.13 mph78%29.80 "Hg10 mi
9:00 AM72 °FSunny.14 mph78%29.80 "Hg10 mi
8:00 AM68 °FSunny.10 mph88%29.80 "Hg10 mi
7:00 AM68 °FBroken clouds.8 mph88%29.80 "HgN/A
6:00 AM66 °FPartly cloudy.9 mph94%29.80 "HgN/A
5:00 AM66 °FMostly cloudy.13 mph88%29.80 "HgN/A
4:00 AM68 °FMostly cloudy.12 mph83%29.83 "HgN/A
3:00 AM68 °FOvercast.12 mph83%29.86 "HgN/A
2:00 AM68 °FOvercast.18 mph83%29.86 "HgN/A
1:00 AM68 °FPassing clouds.21 mph83%29.86 "HgN/A
12:00 AM68 °FMostly cloudy.20 mph83%29.92 "HgN/A
11:00 PM
Tue, Oct 25
68 °FLight rain. Mostly cloudy.18 mph88%29.92 "HgN/A
Weather by CustomWeather, © 2016

See weather overviewHow to use our weather pages